GW2946 Weather Reports


time (UTC)temp
C
wind
direction
speed
KPH
gust
KPH
rain 1hr
cm
rain 24hr
cm
rain mn
cm
humidity
%
barometer
mb
20260508151300 15 256 12.9 16.1 0.00 0.00 0.00 56 1015.3
20260508150756 15 239 14.5 16.1 0.00 0.00 0.00 53 1015.3
20260508150253 15 219 16.1 22.5 0.00 0.00 0.00 57 1015.3
20260508145749 15 325 17.7 20.9 0.00 0.00 0.00 54 1015.4
20260508145245 15 268 12.9 14.5 0.00 0.00 0.00 60 1015.1
20260508144742 15 256 11.3 14.5 0.00 0.00 0.00 55 1015.2
20260508144241 15 235 14.5 16.1 0.00 0.00 0.00 58 1015.2
20260508143738 15 249 16.1 20.9 0.00 0.00 0.00 56 1015.1
20260508143235 15 230 19.3 22.5 0.00 0.00 0.00 55 1015.3
20260508142731 14 221 12.9 16.1 0.00 0.00 0.00 55 1015.0
20260508142228 14 206 11.3 12.9 0.00 0.00 0.00 59 1015.2
20260508141724 14 236 12.9 16.1 0.00 0.00 0.00 59 1015.2
20260508141222 13 203 19.3 22.5 0.00 0.00 0.00 60 1015.3
20260508140719 13 233 12.9 14.5 0.00 0.00 0.00 60 1015.3
20260508140216 13 275 11.3 20.9 0.00 0.00 0.00 59 1015.7
20260508135712 13 230 17.7 17.7 0.00 0.00 0.00 59 1015.4
20260508135207 13 225 20.9 24.1 0.00 0.00 0.00 62 1015.4
20260508134704 13 251 12.9 16.1 0.00 0.00 0.00 62 1015.4
20260508134201 12 229 12.9 14.5 0.00 0.00 0.00 62 1015.3
20260508133658 12 241 14.5 16.1 0.00 0.00 0.00 62 1015.4
20260508133155 12 236 16.1 17.7 0.00 0.00 0.00 61 1015.3
20260508132653 12 231 14.5 16.1 0.00 0.00 0.00 65 1015.3
20260508132150 12 256 22.5 24.1 0.00 0.00 0.00 62 1015.1
20260508131645 12 218 14.5 16.1 0.00 0.00 0.00 65 1015.0
20260508131142 11 239 19.3 20.9 0.00 0.00 0.00 64 1015.4
20260508130639 11 233 17.7 20.9 0.00 0.00 0.00 64 1015.3
20260508130136 11 230 11.3 16.1 0.00 0.00 0.00 66 1015.4
20260508125631 11 225 11.3 12.9 0.00 0.00 0.00 68 1015.1
20260508125129 11 238 16.1 16.1 0.00 0.00 0.00 65 1015.3
20260508124627 11 233 12.9 14.5 0.00 0.00 0.00 66 1015.1
20260508124123 11 242 12.9 17.7 0.00 0.00 0.00 66 1015.2
20260508123622 10 222 16.1 20.9 0.00 0.00 0.00 67 1015.3
20260508123119 10 225 9.7 12.9 0.00 0.00 0.00 67 1015.2
20260508122615 10 222 12.9 16.1 0.00 0.00 0.00 67 1015.2
20260508122112 10 220 8.0 9.7 0.00 0.00 0.00 67 1015.3
20260508121611 10 199 6.4 9.7 0.00 0.00 0.00 70 1015.4
20260508121108 9 235 4.8 6.4 0.00 0.00 0.00 71 1015.4
20260508120606 9 245 4.8 4.8 0.00 0.00 0.00 72 1015.3
20260508120104 8 238 6.4 6.4 0.00 0.00 0.00 69 1015.4
20260508115601 8 234 9.7 11.3 0.00 0.00 0.00 71 1015.3
20260508115057 8 208 6.4 6.4 0.00 0.00 0.00 72 1015.3
20260508114555 8 198 3.2 4.8 0.00 0.00 0.00 72 1015.4
20260508114050 8 205 3.2 4.8 0.00 0.00 0.00 75 1015.2
20260508113548 7 189 4.8 4.8 0.00 0.00 0.00 75 1015.1
20260508113046 7 180 1.6 1.6 0.00 0.00 0.00 74 1015.1
20260508112542 7 140 1.6 1.6 0.00 0.00 0.00 75 1015.0
20260508112039 7 179 3.2 3.2 0.00 0.00 0.00 75 1014.9
20260508111536 7 104 3.2 3.2 0.00 0.00 0.00 76 1015.0
20260508111033 7 58 0.0 1.6 0.00 0.00 0.00 74 1015.1
20260508110531 6 110 3.2 3.2 0.00 0.00 0.00 75 1014.8
20260508110026 6 118 3.2 3.2 0.00 0.00 0.00 74 1015.1
20260508105521 6 105 4.8 4.8 0.00 0.00 0.00 75 1014.8
20260508105019 6 116 3.2 3.2 0.00 0.00 0.00 75 1014.9
20260508104517 6 77 3.2 3.2 0.00 0.00 0.00 76 1015.0
20260508104013 6 112 1.6 1.6 0.00 0.00 0.00 77 1014.8
20260508103510 6 187 6.4 6.4 0.00 0.00 0.00 76 1014.6
20260508103008 6 80 3.2 4.8 0.00 0.00 0.00 76 1014.6
20260508102505 6 103 3.2 3.2 0.00 0.00 0.00 77 1014.4
20260508102003 5 68 1.6 3.2 0.00 0.00 0.00 79 1014.6
20260508101500 5 106 3.2 3.2 0.00 0.00 0.00 79 1014.7
20260508100956 6 68 4.8 4.8 0.00 0.00 0.00 78 1014.6
20260508100455 6 108 3.2 3.2 0.00 0.00 0.00 77 1014.7
20260508095951 6 96 3.2 3.2 0.00 0.00 0.00 77 1014.5
20260508095449 6 171 1.6 1.6 0.00 0.00 0.00 76 1014.4
20260508094946 6 186 3.2 3.2 0.00 0.00 0.00 75 1014.5
20260508094442 6 96 0.0 1.6 0.00 0.00 0.00 75 1014.5
20260508093939 6 204 0.0 0.0 0.00 0.00 0.00 74 1014.5
20260508093436 6 191 1.6 1.6 0.00 0.00 0.00 75 1014.6
20260508092934 6 103 1.6 1.6 0.00 0.00 0.00 74 1014.8
20260508092432 6 79 1.6 1.6 0.00 0.00 0.00 73 1014.4
20260508091930 6 214 1.6 1.6 0.00 0.00 0.00 73 1014.6
20260508091426 7 243 1.6 1.6 0.00 0.00 0.00 73 1014.5
20260508090923 7 258 0.0 1.6 0.00 0.00 0.00 71 1014.7
20260508090422 7 259 1.6 3.2 0.00 0.00 0.00 72 1014.7
20260508085917 6 255 0.0 0.0 0.00 0.00 0.00 74 1014.6
20260508085415 6 255 0.0 0.0 0.00 0.00 0.00 74 1014.7
20260508084911 6 276 0.0 0.0 0.00 0.00 0.00 75 1014.5
20260508084408 6 352 0.0 0.0 0.00 0.00 0.00 76 1014.6
20260508083906 6 352 0.0 0.0 0.00 0.00 0.00 75 1014.5
20260508083403 6 298 0.0 0.0 0.00 0.00 0.00 75 1014.6
20260508082902 6 295 0.0 1.6 0.00 0.00 0.00 75 1014.5
20260508082401 7 32 1.6 1.6 0.00 0.00 0.00 74 1014.5
20260508081858 7 353 6.4 6.4 0.00 0.00 0.00 74 1014.5
20260508081355 6 355 3.2 3.2 0.00 0.00 0.00 76 1014.6
20260508080851 6 37 3.2 4.8 0.00 0.00 0.00 76 1014.4
20260508080349 7 8 1.6 3.2 0.00 0.00 0.00 73 1014.4
20260508075846 7 258 0.0 0.0 0.00 0.00 0.00 73 1014.6
20260508075343 7 239 3.2 3.2 0.00 0.00 0.00 73 1014.4
20260508074841 7 240 6.4 9.7 0.00 0.00 0.00 72 1014.4
20260508074337 7 229 8.0 9.7 0.00 0.00 0.00 72 1014.5
20260508073834 7 220 6.4 6.4 0.00 0.00 0.00 73 1014.4
20260508073332 8 246 11.3 12.9 0.00 0.00 0.00 70 1014.3
20260508072828 8 236 8.0 9.7 0.00 0.00 0.00 71 1014.1
20260508072325 8 226 8.0 9.7 0.00 0.00 0.00 71 1014.4
20260508071822 8 232 9.7 11.3 0.00 0.00 0.00 69 1014.5
20260508071321 8 226 4.8 4.8 0.00 0.00 0.00 72 1014.3
20260508070817 8 224 6.4 6.4 0.00 0.00 0.00 72 1014.4
20260508070316 8 225 6.4 9.7 0.00 0.00 0.00 71 1014.3
20260508065813 8 221 6.4 6.4 0.00 0.00 0.00 74 1014.3
20260508065311 7 235 6.4 6.4 0.00 0.00 0.00 78 1014.5
20260508064809 7 201 3.2 3.2 0.00 0.00 0.00 79 1014.5
20260508064306 7 117 0.0 1.6 0.00 0.00 0.00 79 1014.6
20260508063803 7 79 0.0 0.0 0.00 0.00 0.00 77 1014.5
20260508063302 7 102 1.6 3.2 0.00 0.00 0.00 78 1014.4
20260508062758 7 175 1.6 3.2 0.00 0.00 0.00 75 1014.5
20260508062256 7 90 3.2 3.2 0.00 0.00 0.00 76 1014.5
20260508061753 6 103 1.6 1.6 0.00 0.00 0.00 77 1014.6
20260508061250 6 101 1.6 1.6 0.00 0.00 0.00 79 1014.6
20260508060747 6 81 0.0 1.6 0.00 0.00 0.00 82 1014.6
20260508060245 5 56 0.0 1.6 0.00 0.00 0.00 84 1014.5
20260508055739 5 208 1.6 1.6 0.00 0.00 0.00 85 1014.6
20260508055237 5 221 0.0 0.0 0.00 0.00 0.00 89 1014.9
20260508054733 5 205 1.6 1.6 0.00 0.00 0.00 90 1014.6
20260508054232 5 212 0.0 0.0 0.00 0.00 0.00 90 1014.7
20260508053728 5 174 1.6 4.8 0.00 0.00 0.00 91 1014.9
20260508053225 5 184 0.0 0.0 0.00 0.00 0.00 89 1014.8
20260508052722 5 193 0.0 1.6 0.00 0.00 0.00 89 1014.9
20260508052219 5 194 0.0 0.0 0.00 0.00 0.00 87 1015.0
20260508051716 5 194 0.0 0.0 0.00 0.00 0.00 85 1014.8
20260508051211 5 183 1.6 1.6 0.00 0.00 0.00 85 1014.8
20260508050708 5 181 1.6 3.2 0.00 0.00 0.00 85 1014.9
20260508050206 5 168 1.6 1.6 0.00 0.00 0.00 85 1015.0
20260508045700 5 119 1.6 1.6 0.00 0.00 0.00 85 1015.0
20260508045159 5 127 1.6 1.6 0.00 0.00 0.00 86 1015.0
20260508044656 5 139 1.6 1.6 0.00 0.00 0.00 87 1015.1
20260508044152 5 141 0.0 0.0 0.00 0.00 0.00 87 1015.0
20260508043648 5 214 0.0 1.6 0.00 0.00 0.00 88 1015.2
20260508043146 5 152 3.2 3.2 0.00 0.00 0.00 88 1015.0
20260508042643 5 178 1.6 3.2 0.00 0.00 0.00 89 1015.2
20260508042140 5 177 0.0 0.0 0.00 0.00 0.00 88 1015.0
20260508041636 5 176 0.0 0.0 0.00 0.00 0.00 87 1015.1
20260508041133 5 176 0.0 0.0 0.00 0.00 0.00 86 1015.0
20260508040629 5 175 0.0 0.0 0.00 0.00 0.00 85 1014.9
20260508040127 6 138 0.0 1.6 0.00 0.00 0.00 85 1014.8
20260508035624 6 203 0.0 0.0 0.00 0.00 0.00 84 1014.8
20260508035121 6 214 0.0 0.0 0.00 0.00 0.00 84 1014.8
20260508034618 6 182 1.6 1.6 0.00 0.00 0.00 84 1014.7
20260508034115 6 103 0.0 0.0 0.00 0.00 0.00 84 1014.7
20260508033612 6 85 1.6 1.6 0.00 0.00 0.00 85 1014.8
20260508033111 6 124 1.6 3.2 0.00 0.00 0.00 85 1014.9
20260508032607 6 197 0.0 1.6 0.00 0.00 0.00 85 1015.0
20260508032105 6 195 1.6 1.6 0.00 0.00 0.00 84 1014.9
20260508031601 6 193 0.0 0.0 0.00 0.00 0.00 83 1014.9
20260508031057 6 177 1.6 3.2 0.00 0.00 0.00 83 1014.7
20260508030554 6 89 0.0 1.6 0.00 0.00 0.00 84 1014.9
20260508030052 6 82 0.0 0.0 0.00 0.00 0.00 80 1014.8
20260508025548 6 81 0.0 1.6 0.00 0.00 0.00 81 1014.8
20260508025045 7 80 1.6 3.2 0.00 0.00 0.00 82 1014.9
20260508024541 7 85 1.6 1.6 0.00 0.00 0.00 80 1014.8
20260508024038 7 67 0.0 1.6 0.00 0.00 0.00 80 1014.8
20260508023534 7 127 3.2 3.2 0.00 0.00 0.00 78 1014.9
20260508023032 7 110 1.6 3.2 0.00 0.00 0.00 76 1015.0
20260508022528 7 90 4.8 4.8 0.00 0.00 0.00 77 1014.8
20260508022025 7 83 3.2 3.2 0.00 0.00 0.00 76 1014.9
20260508021521 7 84 3.2 3.2 0.00 0.00 0.00 77 1014.8
20260508021017 8 105 3.2 4.8 0.00 0.00 0.00 73 1015.1
20260508020515 8 98 3.2 3.2 0.00 0.00 0.00 70 1014.9
20260508020012 8 76 3.2 3.2 0.00 0.00 0.00 72 1014.8
20260508015509 8 146 1.6 3.2 0.00 0.00 0.00 66 1014.7
20260508015006 8 237 1.6 1.6 0.00 0.00 0.00 69 1014.8
20260508014503 8 238 3.2 3.2 0.00 0.00 0.00 70 1015.0
20260508013959 8 256 0.0 0.0 0.00 0.00 0.00 69 1014.9
20260508013455 8 257 0.0 0.0 0.00 0.00 0.00 67 1014.9
20260508012952 8 257 0.0 0.0 0.00 0.00 0.00 67 1014.8
20260508012449 8 257 0.0 0.0 0.00 0.00 0.00 67 1014.6
20260508011947 8 256 0.0 0.0 0.00 0.00 0.00 66 1014.6
20260508011445 9 260 1.6 1.6 0.00 0.00 0.00 67 1014.6
20260508010942 10 274 0.0 0.0 0.00 0.00 0.00 64 1014.6
20260508010439 10 289 0.0 0.0 0.00 0.00 0.00 60 1014.6
20260508005936 10 300 0.0 0.0 0.00 0.00 0.00 58 1014.5
20260508005433 10 297 1.6 1.6 0.00 0.00 0.00 57 1014.3
20260508004929 10 298 1.6 3.2 0.00 0.00 0.00 56 1014.5
20260508004425 11 288 3.2 3.2 0.00 0.00 0.00 56 1014.3
20260508003922 11 290 1.6 1.6 0.00 0.00 0.00 56 1014.2
20260508003419 11 295 1.6 3.2 0.00 0.00 0.00 56 1014.2
20260508002916 11 295 3.2 3.2 0.00 0.00 0.00 54 1014.3
20260508002407 11 293 3.2 3.2 0.00 0.00 0.00 54 1014.2
20260508001903 11 303 1.6 3.2 0.00 0.00 0.00 54 1014.0
20260508001359 12 303 3.2 3.2 0.00 0.00 0.00 54 1014.0
20260508000856 12 310 3.2 3.2 0.00 0.00 0.00 56 1014.2
20260508000352 12 321 6.4 6.4 0.00 0.00 0.00 55 1014.0
20260507235849 12 303 6.4 6.4 0.00 0.00 0.00 56 1014.1
20260507235346 13 323 9.7 9.7 0.00 0.00 0.00 52 1014.1
20260507234843 13 303 9.7 11.3 0.00 0.00 0.00 48 1014.0
20260507234340 13 320 4.8 4.8 0.00 0.00 0.00 44 1013.9
20260507233836 13 320 6.4 6.4 0.00 0.00 0.00 45 1013.9
20260507233334 13 315 6.4 6.4 0.00 0.00 0.00 48 1014.0
20260507232832 13 340 8.0 9.7 0.00 0.00 0.00 47 1013.8
20260507232328 13 347 8.0 9.7 0.00 0.00 0.00 47 1013.8
20260507231826 13 331 9.7 11.3 0.00 0.00 0.00 48 1014.0
20260507231322 13 355 9.7 11.3 0.00 0.00 0.00 45 1013.8
20260507230818 13 353 11.3 12.9 0.00 0.00 0.00 47 1014.0
20260507230315 13 332 14.5 17.7 0.00 0.00 0.00 46 1013.8
20260507225810 13 0 20.9 25.7 0.00 0.00 0.00 46 1014.0
20260507225306 13 345 11.3 14.5 0.00 0.00 0.00 45 1014.2
20260507224802 13 359 17.7 20.9 0.00 0.00 0.00 43 1014.0
20260507224259 13 337 14.5 16.1 0.00 0.00 0.00 43 1014.0
20260507223755 13 357 16.1 17.7 0.00 0.00 0.00 44 1014.1
20260507223251 14 329 14.5 17.7 0.00 0.00 0.00 46 1014.0
20260507222749 14 328 16.1 17.7 0.00 0.00 0.00 45 1014.0
20260507222244 14 281 14.5 16.1 0.00 0.00 0.00 45 1014.1
20260507221742 15 351 16.1 20.9 0.00 0.00 0.00 46 1014.1
20260507221238 14 336 11.3 12.9 0.00 0.00 0.00 47 1014.1
20260507220735 13 349 16.1 20.9 0.00 0.00 0.00 46 1014.1
20260507220233 13 331 19.3 24.1 0.00 0.00 0.00 50 1014.0
20260507215728 14 314 14.5 17.7 0.00 0.00 0.00 48 1014.1
20260507215227 14 336 14.5 16.1 0.00 0.00 0.00 48 1013.9
20260507214724 13 334 20.9 24.1 0.00 0.00 0.00 48 1013.8
20260507214221 14 327 19.3 24.1 0.00 0.00 0.00 48 1013.7
20260507213716 14 332 11.3 14.5 0.00 0.00 0.00 47 1013.8
20260507213213 14 310 17.7 20.9 0.00 0.00 0.00 46 1013.8
20260507212709 15 353 24.1 27.4 0.00 0.00 0.00 48 1013.9
20260507212206 14 328 19.3 20.9 0.00 0.00 0.00 45 1013.7
20260507211703 14 6 16.1 17.7 0.00 0.00 0.00 46 1013.7
20260507211158 14 341 19.3 20.9 0.00 0.00 0.00 47 1013.6
20260507210656 14 321 9.7 12.9 0.00 0.00 0.00 45 1013.6
20260507210152 14 334 20.9 24.1 0.00 0.00 0.00 48 1013.4
20260507205649 13 318 12.9 16.1 0.00 0.00 0.00 52 1013.4
20260507205146 13 344 14.5 16.1 0.00 0.00 0.00 51 1013.3
20260507204642 15 340 16.1 16.1 0.00 0.00 0.00 52 1013.3
20260507204140 14 319 12.9 14.5 0.00 0.00 0.00 48 1013.6
20260507203637 13 346 17.7 20.9 0.00 0.00 0.00 49 1013.4
20260507203135 13 348 11.3 12.9 0.00 0.00 0.00 55 1013.5
20260507202630 14 342 24.1 27.4 0.00 0.00 0.00 50 1013.3
20260507202127 13 338 14.5 16.1 0.00 0.00 0.00 50 1013.5
20260507201622 14 333 24.1 27.4 0.00 0.00 0.00 51 1013.3
20260507201119 14 311 16.1 16.1 0.00 0.00 0.00 50 1013.3
20260507200615 14 330 24.1 25.7 0.00 0.00 0.00 50 1013.6
20260507200111 13 338 16.1 16.1 0.00 0.00 0.00 47 1013.4
20260507195609 14 319 16.1 16.1 0.00 0.00 0.00 47 1013.5
20260507195106 14 268 16.1 16.1 0.00 0.00 0.00 51 1013.5
20260507194602 13 337 16.1 20.9 0.00 0.00 0.00 51 1013.7
20260507194057 13 332 22.5 25.7 0.00 0.00 0.00 52 1013.5
20260507193555 13 301 17.7 22.5 0.00 0.00 0.00 54 1013.7
20260507193052 14 337 22.5 25.7 0.00 0.00 0.00 49 1013.6
20260507192548 13 323 17.7 20.9 0.00 0.00 0.00 49 1013.6
20260507192045 14 298 20.9 25.7 0.00 0.00 0.00 50 1013.4
20260507191540 13 294 12.9 14.5 0.00 0.00 0.00 46 1013.9
20260507191038 13 305 30.6 33.8 0.00 0.00 0.00 48 1013.9
20260507190535 14 297 17.7 20.9 0.00 0.00 0.00 49 1014.0
20260507190034 13 316 12.9 16.1 0.00 0.00 0.00 51 1013.7
20260507185532 13 279 12.9 14.5 0.00 0.00 0.00 51 1013.7
20260507185028 13 301 17.7 24.1 0.00 0.00 0.00 45 1013.7
20260507184526 13 312 16.1 16.1 0.00 0.00 0.00 46 1013.9
20260507184024 13 344 20.9 24.1 0.00 0.00 0.00 55 1013.8
20260507183519 13 281 12.9 14.5 0.00 0.00 0.00 50 1014.1
20260507183017 13 319 25.7 29.0 0.00 0.00 0.00 49 1013.8
20260507182513 13 312 20.9 24.1 0.00 0.00 0.00 45 1014.1
20260507182009 13 327 9.7 11.3 0.00 0.00 0.00 47 1013.9
20260507181506 13 297 16.1 17.7 0.00 0.00 0.00 47 1013.9
20260507181002 13 335 20.9 24.1 0.00 0.00 0.00 51 1014.0
20260507180459 13 329 16.1 17.7 0.00 0.00 0.00 50 1014.2
20260507175955 13 304 19.3 22.5 0.00 0.00 0.00 47 1013.9
20260507175452 13 334 22.5 24.1 0.00 0.00 0.00 52 1013.9
20260507174949 13 278 17.7 22.5 0.00 0.00 0.00 51 1014.0
20260507174446 13 311 19.3 22.5 0.00 0.00 0.00 51 1014.1
20260507173944 12 294 16.1 17.7 0.00 0.00 0.00 52 1014.3
20260507173441 13 264 9.7 12.9 0.00 0.00 0.00 50 1014.1
20260507172938 13 337 17.7 17.7 0.00 0.00 0.00 50 1014.4
20260507172434 13 270 12.9 14.5 0.00 0.00 0.00 56 1014.4
20260507171931 13 279 16.1 20.9 0.00 0.00 0.00 58 1014.5
20260507171426 13 262 19.3 24.1 0.00 0.00 0.00 54 1014.5
20260507170924 12 267 19.3 22.5 0.00 0.00 0.00 56 1014.8
20260507170420 12 245 8.0 9.7 0.00 0.00 0.00 51 1014.5
20260507165917 12 303 17.7 20.9 0.00 0.00 0.00 55 1014.6
20260507165413 12 309 16.1 16.1 0.00 0.00 0.00 55 1014.7
20260507164909 12 260 17.7 22.5 0.00 0.00 0.00 50 1014.6
20260507164406 12 314 14.5 16.1 0.00 0.00 0.00 53 1014.8
20260507163903 12 340 19.3 20.9 0.00 0.00 0.00 55 1014.6
20260507163401 12 259 9.7 14.5 0.00 0.00 0.00 53 1014.5
20260507162857 12 261 11.3 12.9 0.00 0.00 0.00 54 1014.6
20260507162352 13 265 24.1 27.4 0.00 0.00 0.00 53 1014.7
20260507161850 12 297 22.5 25.7 0.00 0.00 0.00 56 1014.6
20260507161346 12 329 20.9 24.1 0.00 0.00 0.00 60 1014.9
20260507160843 12 292 16.1 20.9 0.00 0.00 0.00 57 1014.6
20260507160338 12 305 17.7 20.9 0.00 0.00 0.00 53 1014.7
20260507155835 12 260 12.9 14.5 0.00 0.00 0.00 56 1014.8
20260507155331 12 285 17.7 20.9 0.00 0.00 0.00 56 1014.8
20260507154828 12 299 16.1 16.1 0.00 0.00 0.00 59 1014.5
20260507154325 12 265 17.7 20.9 0.00 0.00 0.00 56 1014.6
20260507153822 12 314 17.7 20.9 0.00 0.00 0.00 60 1014.6
20260507153318 12 273 22.5 27.4 0.00 0.00 0.00 61 1014.6
20260507152815 12 305 17.7 20.9 0.00 0.00 0.00 57 1014.7
20260507152311 12 297 14.5 16.1 0.00 0.00 0.00 54 1014.3
20260507151807 12 248 9.7 12.9 0.00 0.00 0.00 55 1014.3